Terminal Aerodrome Forecast
Issued by NWS Houston/Galveston, TX

Home | Current Version | Previous Version | Text Only | Print | Product List | Glossary On
Versions: 1 2 3 4 5 6 7 8 9 10 11 12 13 14 15 16 17 18 19 20 21 22 23 24 25 26 27 28 29
000
FTUS44 KHGX 291130
TAFGLS
TAF
KGLS 291130Z 2912/3012 16014KT P6SM BKN010 OVC016
     FM291500 14015G25KT 6SM BR SCT010 BKN015
     FM291800 15015G25KT 6SM HZ SCT100
     FM300300 16018G28KT 4SM BR VCSH SCT009 OVC012
     FM300900 17017G27KT 5SM -TSRA BKN015CB=

USA.gov is the U.S. government's official web portal to all federal, state and local government web resources and services.